| time (UTC) | temp F | wind direction | speed knots | gust knots | rain 1hr in | rain 24hr in | rain mn in | humidity % | barometer mb |
| 20260903235504 | 79 | 61 | 4.3 | 9.6 | 0.00 | 0.00 | 0.00 | 75 | 1015.9 |
| 20260903235004 | 79 | 65 | 3.5 | 12.2 | 0.00 | 0.00 | 0.00 | 73 | 1015.7 |
| 20260903234510 | 80 | 75 | 7.0 | 12.2 | 0.00 | 0.00 | 0.00 | 71 | 1015.6 |
| 20260903234004 | 82 | 47 | 4.3 | 8.7 | 0.00 | 0.00 | 0.00 | 69 | 1016.0 |
| 20260903233505 | 85 | 45 | 4.3 | 8.7 | 0.00 | 0.00 | 0.00 | 63 | 1015.9 |
| 20260903233007 | 89 | 51 | 1.7 | 2.6 | 0.00 | 0.00 | 0.00 | 63 | 1015.6 |
| 20260903232504 | 90 | 213 | 0.0 | 1.7 | 0.00 | 0.00 | 0.00 | 60 | 1015.2 |
| 20260903232004 | 90 | 205 | 0.0 | 1.7 | 0.00 | 0.00 | 0.00 | 60 | 1015.0 |
| 20260903231506 | 91 | 252 | 0.0 | 1.7 | 0.00 | 0.00 | 0.00 | 59 | 1014.8 |
| 20260903231003 | 92 | 223 | 0.9 | 1.7 | 0.00 | 0.00 | 0.00 | 58 | 1014.8 |
| 20260903230503 | 92 | 230 | 0.9 | 2.6 | 0.00 | 0.00 | 0.00 | 57 | 1014.7 |
| 20260903230010 | 92 | 254 | 0.9 | 2.6 | 0.00 | 0.00 | 0.00 | 56 | 1014.7 |
| 20260903225505 | 92 | 205 | 0.9 | 1.7 | 0.00 | 0.00 | 0.00 | 57 | 1014.6 |
| 20260903225003 | 92 | 236 | 0.9 | 2.6 | 0.00 | 0.00 | 0.00 | 56 | 1014.7 |
| 20260903224507 | 93 | 217 | 0.9 | 2.6 | 0.00 | 0.00 | 0.00 | 55 | 1014.7 |
| 20260903224003 | 93 | 265 | 0.9 | 4.3 | 0.00 | 0.00 | 0.00 | 54 | 1014.7 |
| 20260903223502 | 93 | 240 | 1.7 | 4.3 | 0.00 | 0.00 | 0.00 | 54 | 1014.6 |
| 20260903223008 | 93 | 211 | 1.7 | 7.8 | 0.00 | 0.00 | 0.00 | 52 | 1014.5 |
| 20260903222503 | 93 | 315 | 0.9 | 7.8 | 0.00 | 0.00 | 0.00 | 53 | 1014.5 |
| 20260903222004 | 93 | 215 | 1.7 | 7.8 | 0.00 | 0.00 | 0.00 | 54 | 1014.5 |
| 20260903221512 | 93 | 211 | 1.7 | 7.8 | 0.00 | 0.00 | 0.00 | 53 | 1014.5 |
| 20260903221004 | 93 | 230 | 3.5 | 7.0 | 0.00 | 0.00 | 0.00 | 52 | 1014.6 |
| 20260903220505 | 93 | 215 | 2.6 | 6.1 | 0.00 | 0.00 | 0.00 | 53 | 1014.5 |
| 20260903220009 | 93 | 329 | 1.7 | 7.0 | 0.00 | 0.00 | 0.00 | 52 | 1014.4 |
| 20260903215504 | 93 | 313 | 1.7 | 7.0 | 0.00 | 0.00 | 0.00 | 52 | 1014.4 |
| 20260903215006 | 93 | 274 | 2.6 | 7.8 | 0.00 | 0.00 | 0.00 | 53 | 1014.4 |
| 20260903214506 | 94 | 306 | 3.5 | 7.8 | 0.00 | 0.00 | 0.00 | 51 | 1014.3 |
| 20260903214003 | 94 | 320 | 2.6 | 7.0 | 0.00 | 0.00 | 0.00 | 51 | 1014.3 |
| 20260903213503 | 94 | 305 | 2.6 | 7.0 | 0.00 | 0.00 | 0.00 | 51 | 1014.2 |
| 20260903213018 | 94 | 232 | 1.7 | 8.7 | 0.00 | 0.00 | 0.00 | 52 | 1014.1 |
| 20260903212503 | 94 | 216 | 2.6 | 11.3 | 0.00 | 0.00 | 0.00 | 52 | 1014.2 |
| 20260903212003 | 94 | 308 | 3.5 | 7.8 | 0.00 | 0.00 | 0.00 | 49 | 1014.3 |
| 20260903211508 | 94 | 208 | 3.5 | 7.8 | 0.00 | 0.00 | 0.00 | 50 | 1014.2 |
| 20260903211005 | 94 | 218 | 1.7 | 7.0 | 0.00 | 0.00 | 0.00 | 51 | 1014.2 |
| 20260903210504 | 94 | 184 | 2.6 | 7.0 | 0.00 | 0.00 | 0.00 | 52 | 1014.2 |
| 20260903210014 | 94 | 267 | 3.5 | 7.0 | 0.00 | 0.00 | 0.00 | 51 | 1014.2 |
| 20260903205503 | 94 | 242 | 2.6 | 8.7 | 0.00 | 0.00 | 0.00 | 52 | 1014.2 |
| 20260903205003 | 94 | 219 | 3.5 | 9.6 | 0.00 | 0.00 | 0.00 | 50 | 1014.3 |
| 20260903204509 | 94 | 318 | 2.6 | 9.6 | 0.00 | 0.00 | 0.00 | 50 | 1014.3 |
| 20260903204003 | 94 | 268 | 3.5 | 7.8 | 0.00 | 0.00 | 0.00 | 52 | 1014.2 |
| 20260903203507 | 94 | 5 | 2.6 | 7.0 | 0.00 | 0.00 | 0.00 | 50 | 1014.1 |
| 20260903203019 | 94 | 9 | 3.5 | 8.7 | 0.00 | 0.00 | 0.00 | 51 | 1014.1 |
| 20260903202504 | 94 | 205 | 5.2 | 8.7 | 0.00 | 0.00 | 0.00 | 53 | 1014.1 |
| 20260903202003 | 94 | 192 | 4.3 | 8.7 | 0.00 | 0.00 | 0.00 | 51 | 1014.1 |
| 20260903201507 | 94 | 222 | 2.6 | 8.7 | 0.00 | 0.00 | 0.00 | 52 | 1014.2 |
| 20260903201002 | 94 | 288 | 3.5 | 8.7 | 0.00 | 0.00 | 0.00 | 51 | 1014.2 |
| 20260903200504 | 94 | 331 | 3.5 | 8.7 | 0.00 | 0.00 | 0.00 | 52 | 1014.3 |
| 20260903200015 | 94 | 189 | 2.6 | 7.0 | 0.00 | 0.00 | 0.00 | 53 | 1014.5 |
| 20260903195504 | 94 | 218 | 2.6 | 7.0 | 0.00 | 0.00 | 0.00 | 52 | 1014.6 |
| 20260903195003 | 93 | 31 | 2.6 | 6.1 | 0.00 | 0.00 | 0.00 | 53 | 1014.7 |
| 20260903194532 | 93 | 350 | 3.5 | 6.1 | 0.00 | 0.00 | 0.00 | 55 | 1014.8 |
| 20260903194008 | 93 | 221 | 3.5 | 6.1 | 0.00 | 0.00 | 0.00 | 54 | 1014.9 |
| 20260903193503 | 94 | 210 | 2.6 | 7.0 | 0.00 | 0.00 | 0.00 | 53 | 1015.2 |
| 20260903193010 | 94 | 298 | 2.6 | 9.6 | 0.00 | 0.00 | 0.00 | 55 | 1015.2 |
| 20260903192505 | 94 | 208 | 3.5 | 9.6 | 0.00 | 0.00 | 0.00 | 52 | 1015.3 |
| 20260903192003 | 93 | 205 | 2.6 | 7.0 | 0.00 | 0.00 | 0.00 | 53 | 1015.5 |
| 20260903191512 | 93 | 298 | 4.3 | 7.0 | 0.00 | 0.00 | 0.00 | 53 | 1015.6 |
| 20260903191005 | 93 | 300 | 2.6 | 7.8 | 0.00 | 0.00 | 0.00 | 53 | 1015.6 |
| 20260903190503 | 93 | 306 | 2.6 | 7.8 | 0.00 | 0.00 | 0.00 | 53 | 1015.7 |
| 20260903190011 | 93 | 215 | 3.5 | 7.8 | 0.00 | 0.00 | 0.00 | 52 | 1015.7 |
| 20260903185508 | 93 | 311 | 3.5 | 7.8 | 0.00 | 0.00 | 0.00 | 54 | 1015.8 |
| 20260903185007 | 93 | 281 | 3.5 | 7.8 | 0.00 | 0.00 | 0.00 | 55 | 1015.8 |
| 20260903184513 | 93 | 296 | 2.6 | 7.0 | 0.00 | 0.00 | 0.00 | 55 | 1015.8 |
| 20260903184003 | 93 | 199 | 1.7 | 7.0 | 0.00 | 0.00 | 0.00 | 54 | 1015.9 |
| 20260903183505 | 93 | 227 | 2.6 | 7.0 | 0.00 | 0.00 | 0.00 | 54 | 1015.9 |
| 20260903183018 | 93 | 174 | 3.5 | 8.7 | 0.00 | 0.00 | 0.00 | 55 | 1015.9 |
| 20260903182508 | 93 | 230 | 2.6 | 8.7 | 0.00 | 0.00 | 0.00 | 54 | 1015.9 |
| 20260903182008 | 93 | 210 | 3.5 | 7.8 | 0.00 | 0.00 | 0.00 | 56 | 1015.9 |
| 20260903181511 | 93 | 311 | 2.6 | 7.0 | 0.00 | 0.00 | 0.00 | 56 | 1015.9 |
| 20260903181007 | 92 | 209 | 3.5 | 7.0 | 0.00 | 0.00 | 0.00 | 55 | 1015.9 |
| 20260903180506 | 92 | 201 | 2.6 | 6.1 | 0.00 | 0.00 | 0.00 | 58 | 1016.0 |
| 20260903180029 | 92 | 338 | 1.7 | 7.0 | 0.00 | 0.00 | 0.00 | 60 | 1015.9 |
| 20260903175507 | 92 | 214 | 2.6 | 7.0 | 0.00 | 0.00 | 0.00 | 58 | 1016.0 |
| 20260903175007 | 92 | 219 | 1.7 | 7.0 | 0.00 | 0.00 | 0.00 | 59 | 1016.0 |
| 20260903174515 | 92 | 183 | 3.5 | 7.0 | 0.00 | 0.00 | 0.00 | 58 | 1016.1 |
| 20260903174007 | 92 | 224 | 2.6 | 6.1 | 0.00 | 0.00 | 0.00 | 58 | 1016.1 |
| 20260903173507 | 92 | 226 | 2.6 | 6.1 | 0.00 | 0.00 | 0.00 | 57 | 1016.1 |
| 20260903173014 | 92 | 201 | 2.6 | 6.1 | 0.00 | 0.00 | 0.00 | 58 | 1016.2 |
| 20260903172506 | 91 | 212 | 2.6 | 7.0 | 0.00 | 0.00 | 0.00 | 60 | 1016.2 |
| 20260903172006 | 91 | 248 | 1.7 | 7.0 | 0.00 | 0.00 | 0.00 | 59 | 1016.2 |
| 20260903171516 | 91 | 210 | 2.6 | 7.8 | 0.00 | 0.00 | 0.00 | 59 | 1016.3 |
| 20260903171007 | 91 | 313 | 1.7 | 7.8 | 0.00 | 0.00 | 0.00 | 59 | 1016.3 |
| 20260903170507 | 91 | 239 | 1.7 | 7.0 | 0.00 | 0.00 | 0.00 | 59 | 1016.4 |
| 20260903170013 | 91 | 210 | 2.6 | 7.0 | 0.00 | 0.00 | 0.00 | 60 | 1016.5 |
| 20260903165506 | 91 | 200 | 2.6 | 6.1 | 0.00 | 0.00 | 0.00 | 58 | 1016.5 |
| 20260903165014 | 91 | 259 | 2.6 | 6.1 | 0.00 | 0.00 | 0.00 | 59 | 1016.6 |
| 20260903164514 | 91 | 215 | 2.6 | 6.1 | 0.00 | 0.00 | 0.00 | 60 | 1016.6 |
| 20260903164008 | 90 | 219 | 1.7 | 8.7 | 0.00 | 0.00 | 0.00 | 61 | 1016.6 |
| 20260903163506 | 90 | 200 | 1.7 | 8.7 | 0.00 | 0.00 | 0.00 | 61 | 1016.6 |
| 20260903163023 | 90 | 296 | 2.6 | 8.7 | 0.00 | 0.00 | 0.00 | 59 | 1016.7 |
| 20260903162507 | 90 | 246 | 3.5 | 8.7 | 0.00 | 0.00 | 0.00 | 61 | 1016.7 |
| 20260903162010 | 90 | 203 | 3.5 | 7.0 | 0.00 | 0.00 | 0.00 | 61 | 1016.8 |
| 20260903161515 | 90 | 273 | 2.6 | 6.1 | 0.00 | 0.00 | 0.00 | 61 | 1016.9 |
| 20260903161007 | 89 | 288 | 2.6 | 6.1 | 0.00 | 0.00 | 0.00 | 62 | 1017.0 |
| 20260903160512 | 89 | 211 | 2.6 | 6.1 | 0.00 | 0.00 | 0.00 | 62 | 1016.9 |
| 20260903160016 | 89 | 297 | 1.7 | 5.2 | 0.00 | 0.00 | 0.00 | 63 | 1016.9 |
| 20260903155509 | 89 | 207 | 1.7 | 7.0 | 0.00 | 0.00 | 0.00 | 63 | 1017.0 |
| 20260903155006 | 88 | 244 | 3.5 | 7.0 | 0.00 | 0.00 | 0.00 | 63 | 1017.1 |
| 20260903154518 | 88 | 210 | 3.5 | 6.1 | 0.00 | 0.00 | 0.00 | 62 | 1017.0 |
| 20260903154007 | 88 | 243 | 1.7 | 6.1 | 0.00 | 0.00 | 0.00 | 65 | 1016.9 |
| 20260903153508 | 88 | 320 | 1.7 | 7.0 | 0.00 | 0.00 | 0.00 | 64 | 1016.9 |
| 20260903153020 | 87 | 230 | 3.5 | 7.0 | 0.00 | 0.00 | 0.00 | 63 | 1017.0 |
| 20260903152508 | 87 | 201 | 3.5 | 7.8 | 0.00 | 0.00 | 0.00 | 64 | 1017.0 |
| 20260903152008 | 87 | 212 | 1.7 | 7.8 | 0.00 | 0.00 | 0.00 | 66 | 1017.0 |
| 20260903151525 | 87 | 217 | 2.6 | 7.0 | 0.00 | 0.00 | 0.00 | 66 | 1016.9 |
| 20260903151009 | 86 | 225 | 2.6 | 7.0 | 0.00 | 0.00 | 0.00 | 65 | 1016.8 |
| 20260903150510 | 86 | 288 | 2.6 | 7.0 | 0.00 | 0.00 | 0.00 | 66 | 1016.9 |
| 20260903150020 | 86 | 246 | 2.6 | 7.8 | 0.00 | 0.00 | 0.00 | 66 | 1016.8 |
| 20260903145511 | 86 | 207 | 2.6 | 7.8 | 0.00 | 0.00 | 0.00 | 67 | 1016.8 |
| 20260903145010 | 86 | 208 | 1.7 | 4.3 | 0.00 | 0.00 | 0.00 | 68 | 1016.8 |
| 20260903144519 | 86 | 237 | 2.6 | 7.8 | 0.00 | 0.00 | 0.00 | 67 | 1016.7 |
| 20260903144004 | 85 | 219 | 1.7 | 7.8 | 0.00 | 0.00 | 0.00 | 68 | 1016.7 |
| 20260903143508 | 85 | 236 | 2.6 | 6.1 | 0.00 | 0.00 | 0.00 | 70 | 1016.8 |
| 20260903143014 | 85 | 223 | 2.6 | 6.1 | 0.00 | 0.00 | 0.00 | 68 | 1016.7 |
| 20260903142506 | 85 | 243 | 1.7 | 5.2 | 0.00 | 0.00 | 0.00 | 70 | 1016.7 |
| 20260903142008 | 84 | 210 | 1.7 | 5.2 | 0.00 | 0.00 | 0.00 | 71 | 1016.6 |
| 20260903141522 | 84 | 229 | 2.6 | 5.2 | 0.00 | 0.00 | 0.00 | 71 | 1016.7 |
| 20260903141015 | 84 | 235 | 2.6 | 6.1 | 0.00 | 0.00 | 0.00 | 70 | 1016.8 |
| 20260903140502 | 84 | 179 | 2.6 | 6.1 | 0.00 | 0.00 | 0.00 | 70 | 1016.7 |
| 20260903140003 | 84 | 209 | 2.6 | 5.2 | 0.00 | 0.00 | 0.00 | 70 | 1016.8 |
| 20260903135503 | 84 | 189 | 1.7 | 4.3 | 0.00 | 0.00 | 0.00 | 71 | 1016.8 |
| 20260903135003 | 83 | 238 | 1.7 | 5.2 | 0.00 | 0.00 | 0.00 | 71 | 1016.8 |
| 20260903134507 | 83 | 192 | 1.7 | 5.2 | 0.00 | 0.00 | 0.00 | 72 | 1016.8 |
| 20260903134004 | 83 | 227 | 2.6 | 4.3 | 0.00 | 0.00 | 0.00 | 71 | 1016.8 |
| 20260903133506 | 83 | 226 | 2.6 | 4.3 | 0.00 | 0.00 | 0.00 | 72 | 1016.8 |
| 20260903133010 | 82 | 219 | 1.7 | 4.3 | 0.00 | 0.00 | 0.00 | 73 | 1016.9 |
| 20260903132508 | 82 | 212 | 2.6 | 4.3 | 0.00 | 0.00 | 0.00 | 73 | 1017.0 |
| 20260903132006 | 82 | 218 | 1.7 | 3.5 | 0.00 | 0.00 | 0.00 | 74 | 1017.1 |
| 20260903131514 | 81 | 213 | 1.7 | 4.3 | 0.00 | 0.00 | 0.00 | 74 | 1017.1 |
| 20260903131011 | 81 | 217 | 1.7 | 4.3 | 0.00 | 0.00 | 0.00 | 75 | 1017.1 |
| 20260903130510 | 80 | 236 | 1.7 | 4.3 | 0.00 | 0.00 | 0.00 | 76 | 1017.2 |
| 20260903130026 | 79 | 214 | 0.9 | 3.5 | 0.00 | 0.00 | 0.00 | 77 | 1017.2 |
| 20260903125503 | 79 | 215 | 1.7 | 3.5 | 0.00 | 0.00 | 0.00 | 77 | 1017.2 |
| 20260903125003 | 79 | 205 | 1.7 | 3.5 | 0.00 | 0.00 | 0.00 | 78 | 1017.2 |
| 20260903124505 | 79 | 213 | 1.7 | 2.6 | 0.00 | 0.00 | 0.00 | 79 | 1017.2 |
| 20260903124003 | 78 | 224 | 1.7 | 5.2 | 0.00 | 0.00 | 0.00 | 78 | 1017.2 |
| 20260903123502 | 78 | 210 | 1.7 | 5.2 | 0.00 | 0.00 | 0.00 | 78 | 1017.2 |
| 20260903123008 | 78 | 199 | 2.6 | 4.3 | 0.00 | 0.00 | 0.00 | 79 | 1017.2 |
| 20260903122505 | 78 | 200 | 1.7 | 3.5 | 0.00 | 0.00 | 0.00 | 79 | 1017.1 |
| 20260903122005 | 78 | 205 | 0.9 | 3.5 | 0.00 | 0.00 | 0.00 | 78 | 1017.2 |
| 20260903121516 | 77 | 208 | 1.7 | 3.5 | 0.00 | 0.00 | 0.00 | 78 | 1017.2 |
| 20260903121008 | 77 | 212 | 1.7 | 2.6 | 0.00 | 0.00 | 0.00 | 79 | 1017.2 |
| 20260903120511 | 77 | 207 | 1.7 | 2.6 | 0.00 | 0.00 | 0.00 | 80 | 1017.2 |
| 20260903120024 | 76 | 217 | 0.9 | 1.7 | 0.00 | 0.00 | 0.00 | 80 | 1017.2 |
| 20260903115510 | 76 | 205 | 0.9 | 1.7 | 0.00 | 0.00 | 0.00 | 80 | 1017.1 |
| 20260903115011 | 76 | 214 | 0.9 | 2.6 | 0.00 | 0.00 | 0.00 | 80 | 1017.2 |
| 20260903114504 | 76 | 209 | 0.9 | 2.6 | 0.00 | 0.00 | 0.00 | 80 | 1017.1 |
| 20260903114002 | 76 | 221 | 0.9 | 1.7 | 0.00 | 0.00 | 0.00 | 81 | 1017.1 |
| 20260903113502 | 76 | 221 | 0.9 | 2.6 | 0.00 | 0.00 | 0.00 | 81 | 1017.1 |
| 20260903113019 | 76 | 223 | 0.9 | 2.6 | 0.00 | 0.00 | 0.00 | 81 | 1017.0 |
| 20260903112504 | 76 | 217 | 0.9 | 1.7 | 0.00 | 0.00 | 0.00 | 81 | 1017.0 |
| 20260903112005 | 76 | 210 | 0.9 | 1.7 | 0.00 | 0.00 | 0.00 | 81 | 1016.9 |
| 20260903111511 | 76 | 210 | 0.9 | 1.7 | 0.00 | 0.00 | 0.00 | 80 | 1016.8 |
| 20260903111008 | 76 | 211 | 0.0 | 1.7 | 0.00 | 0.00 | 0.00 | 80 | 1016.8 |
| 20260903110508 | 76 | 211 | 0.9 | 2.6 | 0.00 | 0.00 | 0.00 | 80 | 1016.7 |
| 20260903110044 | 76 | 212 | 0.0 | 2.6 | 0.00 | 0.00 | 0.00 | 80 | 1016.7 |
| 20260903105511 | 76 | 217 | 0.9 | 2.6 | 0.00 | 0.00 | 0.00 | 80 | 1016.7 |
| 20260903105014 | 76 | 213 | 0.9 | 2.6 | 0.00 | 0.00 | 0.00 | 80 | 1016.6 |
| 20260903104526 | 76 | 217 | 0.9 | 1.7 | 0.00 | 0.00 | 0.00 | 80 | 1016.6 |
| 20260903104013 | 76 | 232 | 0.0 | 1.7 | 0.00 | 0.00 | 0.00 | 79 | 1016.5 |
| 20260903103505 | 77 | 209 | 0.9 | 2.6 | 0.00 | 0.00 | 0.00 | 79 | 1016.4 |
| 20260903103007 | 77 | 219 | 0.9 | 2.6 | 0.00 | 0.00 | 0.00 | 79 | 1016.4 |
| 20260903102504 | 77 | 205 | 0.9 | 2.6 | 0.00 | 0.00 | 0.00 | 79 | 1016.4 |
| 20260903102002 | 77 | 224 | 0.9 | 2.6 | 0.00 | 0.00 | 0.00 | 79 | 1016.4 |
| 20260903101511 | 77 | 213 | 0.9 | 1.7 | 0.00 | 0.00 | 0.00 | 78 | 1016.4 |
| 20260903101003 | 77 | 222 | 0.9 | 2.6 | 0.00 | 0.00 | 0.00 | 78 | 1016.3 |
| 20260903100507 | 77 | 206 | 0.9 | 2.6 | 0.00 | 0.00 | 0.00 | 78 | 1016.3 |
| 20260903100016 | 77 | 207 | 0.9 | 1.7 | 0.00 | 0.00 | 0.00 | 78 | 1016.2 |
| 20260903095509 | 77 | 203 | 0.9 | 2.6 | 0.00 | 0.00 | 0.00 | 78 | 1016.2 |
| 20260903095012 | 77 | 214 | 0.9 | 3.5 | 0.00 | 0.00 | 0.00 | 77 | 1016.2 |
| 20260903094544 | 78 | 215 | 0.9 | 3.5 | 0.00 | 0.00 | 0.00 | 77 | 1016.2 |
| 20260903094011 | 78 | 217 | 0.9 | 2.6 | 0.00 | 0.00 | 0.00 | 77 | 1016.2 |
| 20260903093511 | 78 | 217 | 0.9 | 1.7 | 0.00 | 0.00 | 0.00 | 77 | 1016.1 |
| 20260903093033 | 78 | 219 | 0.9 | 1.7 | 0.00 | 0.00 | 0.00 | 76 | 1016.2 |
| 20260903092504 | 78 | 240 | 0.9 | 2.6 | 0.00 | 0.00 | 0.00 | 76 | 1016.2 |
| 20260903092005 | 78 | 211 | 0.9 | 2.6 | 0.00 | 0.00 | 0.00 | 76 | 1016.2 |
| 20260903091510 | 78 | 216 | 0.9 | 4.3 | 0.00 | 0.00 | 0.00 | 76 | 1016.2 |
| 20260903091003 | 78 | 204 | 0.9 | 4.3 | 0.00 | 0.00 | 0.00 | 76 | 1016.3 |
| 20260903090503 | 78 | 206 | 2.6 | 4.3 | 0.00 | 0.00 | 0.00 | 76 | 1016.2 |
| 20260903090014 | 79 | 226 | 0.9 | 3.5 | 0.00 | 0.00 | 0.00 | 76 | 1016.1 |
| 20260903085508 | 79 | 217 | 1.7 | 3.5 | 0.00 | 0.00 | 0.00 | 76 | 1016.1 |
| 20260903085007 | 79 | 208 | 1.7 | 5.2 | 0.00 | 0.00 | 0.00 | 76 | 1016.1 |
| 20260903084523 | 79 | 240 | 1.7 | 5.2 | 0.00 | 0.00 | 0.00 | 76 | 1016.1 |
| 20260903084010 | 79 | 223 | 2.6 | 5.2 | 0.00 | 0.00 | 0.00 | 76 | 1016.1 |
| 20260903083513 | 79 | 205 | 1.7 | 6.1 | 0.00 | 0.00 | 0.00 | 76 | 1016.1 |
| 20260903083026 | 79 | 209 | 2.6 | 6.1 | 0.00 | 0.00 | 0.00 | 76 | 1016.1 |
| 20260903082512 | 79 | 207 | 2.6 | 6.1 | 0.00 | 0.00 | 0.00 | 76 | 1016.1 |
| 20260903082016 | 79 | 236 | 2.6 | 6.1 | 0.00 | 0.00 | 0.00 | 76 | 1016.1 |
| 20260903081504 | 79 | 210 | 2.6 | 4.3 | 0.00 | 0.00 | 0.00 | 76 | 1016.1 |
| 20260903081002 | 79 | 210 | 1.7 | 6.1 | 0.00 | 0.00 | 0.00 | 76 | 1016.1 |
| 20260903080502 | 79 | 221 | 1.7 | 7.0 | 0.00 | 0.00 | 0.00 | 75 | 1016.2 |
| 20260903080011 | 79 | 202 | 3.5 | 7.0 | 0.00 | 0.00 | 0.00 | 75 | 1016.2 |
| 20260903075508 | 79 | 238 | 2.6 | 5.2 | 0.00 | 0.00 | 0.00 | 76 | 1016.1 |
| 20260903075008 | 79 | 226 | 2.6 | 7.0 | 0.00 | 0.00 | 0.00 | 75 | 1016.1 |
| 20260903074518 | 79 | 209 | 1.7 | 7.0 | 0.00 | 0.00 | 0.00 | 75 | 1016.0 |
| 20260903074012 | 79 | 201 | 2.6 | 5.2 | 0.00 | 0.00 | 0.00 | 76 | 1016.0 |
| 20260903073513 | 79 | 188 | 1.7 | 6.1 | 0.00 | 0.00 | 0.00 | 76 | 1016.1 |
| 20260903073027 | 79 | 204 | 2.6 | 6.1 | 0.00 | 0.00 | 0.00 | 76 | 1016.0 |
| 20260903072517 | 79 | 222 | 3.5 | 7.0 | 0.00 | 0.00 | 0.00 | 76 | 1016.0 |
| 20260903072022 | 79 | 196 | 3.5 | 7.0 | 0.00 | 0.00 | 0.00 | 76 | 1016.0 |
| 20260903071534 | 79 | 196 | 2.6 | 6.1 | 0.00 | 0.00 | 0.00 | 76 | 1016.0 |
| 20260903071016 | 79 | 221 | 4.3 | 6.1 | 0.00 | 0.00 | 0.00 | 77 | 1016.0 |
| 20260903070505 | 79 | 202 | 2.6 | 5.2 | 0.00 | 0.00 | 0.00 | 77 | 1016.1 |
| 20260903070007 | 79 | 188 | 2.6 | 4.3 | 0.00 | 0.00 | 0.00 | 78 | 1016.2 |
| 20260903065507 | 79 | 210 | 1.7 | 4.3 | 0.00 | 0.00 | 0.00 | 78 | 1016.2 |
| 20260903065007 | 79 | 200 | 1.7 | 3.5 | 0.00 | 0.00 | 0.00 | 78 | 1016.2 |
| 20260903064516 | 79 | 207 | 2.6 | 3.5 | 0.00 | 0.00 | 0.00 | 78 | 1016.2 |
| 20260903064010 | 78 | 211 | 1.7 | 4.3 | 0.00 | 0.00 | 0.00 | 79 | 1016.2 |
| 20260903063512 | 78 | 183 | 1.7 | 4.3 | 0.00 | 0.00 | 0.00 | 79 | 1016.3 |
| 20260903063023 | 78 | 219 | 1.7 | 3.5 | 0.00 | 0.00 | 0.00 | 79 | 1016.3 |
| 20260903062514 | 78 | 201 | 1.7 | 3.5 | 0.00 | 0.00 | 0.00 | 79 | 1016.3 |
| 20260903062013 | 78 | 201 | 1.7 | 3.5 | 0.00 | 0.00 | 0.00 | 79 | 1016.3 |
| 20260903061537 | 78 | 200 | 1.7 | 3.5 | 0.00 | 0.00 | 0.00 | 79 | 1016.3 |
| 20260903061016 | 79 | 225 | 1.7 | 3.5 | 0.00 | 0.00 | 0.00 | 79 | 1016.3 |
| 20260903060515 | 79 | 204 | 1.7 | 4.3 | 0.00 | 0.00 | 0.00 | 79 | 1016.3 |
| 20260903060030 | 79 | 200 | 0.9 | 4.3 | 0.00 | 0.00 | 0.00 | 79 | 1016.3 |
| 20260903055507 | 79 | 205 | 1.7 | 4.3 | 0.00 | 0.00 | 0.00 | 79 | 1016.3 |
| 20260903055006 | 79 | 205 | 1.7 | 5.2 | 0.00 | 0.00 | 0.00 | 79 | 1016.3 |
| 20260903054536 | 79 | 201 | 1.7 | 5.2 | 0.00 | 0.00 | 0.00 | 79 | 1016.2 |
| 20260903054010 | 79 | 203 | 1.7 | 4.3 | 0.00 | 0.00 | 0.00 | 79 | 1016.3 |
| 20260903053509 | 79 | 203 | 1.7 | 4.3 | 0.00 | 0.00 | 0.00 | 79 | 1016.2 |
| 20260903053030 | 79 | 207 | 1.7 | 3.5 | 0.00 | 0.00 | 0.00 | 79 | 1016.1 |
| 20260903052511 | 79 | 184 | 1.7 | 3.5 | 0.00 | 0.00 | 0.00 | 79 | 1016.1 |
| 20260903052011 | 79 | 193 | 1.7 | 4.3 | 0.00 | 0.00 | 0.00 | 79 | 1016.0 |
| 20260903051506 | 79 | 202 | 2.6 | 4.3 | 0.00 | 0.00 | 0.00 | 79 | 1016.0 |
| 20260903051006 | 79 | 207 | 1.7 | 3.5 | 0.00 | 0.00 | 0.00 | 80 | 1016.0 |
| 20260903050505 | 79 | 209 | 1.7 | 4.3 | 0.00 | 0.00 | 0.00 | 79 | 1015.9 |
| 20260903050009 | 79 | 213 | 1.7 | 4.3 | 0.00 | 0.00 | 0.00 | 79 | 1015.9 |
| 20260903045505 | 79 | 213 | 1.7 | 3.5 | 0.00 | 0.00 | 0.00 | 80 | 1015.8 |
| 20260903045004 | 79 | 219 | 1.7 | 3.5 | 0.00 | 0.00 | 0.00 | 80 | 1015.8 |
| 20260903044512 | 79 | 205 | 1.7 | 3.5 | 0.00 | 0.00 | 0.00 | 80 | 1015.8 |
| 20260903044007 | 80 | 194 | 1.7 | 3.5 | 0.00 | 0.00 | 0.00 | 80 | 1015.7 |
| 20260903043507 | 80 | 213 | 1.7 | 3.5 | 0.00 | 0.00 | 0.00 | 79 | 1015.7 |
| 20260903043016 | 80 | 204 | 1.7 | 4.3 | 0.00 | 0.00 | 0.00 | 79 | 1015.7 |
| 20260903042511 | 80 | 207 | 0.9 | 4.3 | 0.00 | 0.00 | 0.00 | 79 | 1015.6 |
| 20260903042015 | 80 | 215 | 1.7 | 4.3 | 0.00 | 0.00 | 0.00 | 79 | 1015.7 |
| 20260903041528 | 80 | 203 | 0.9 | 4.3 | 0.00 | 0.00 | 0.00 | 79 | 1015.8 |
| 20260903041014 | 80 | 215 | 1.7 | 3.5 | 0.00 | 0.00 | 0.00 | 79 | 1015.7 |
| 20260903040503 | 80 | 208 | 1.7 | 2.6 | 0.00 | 0.00 | 0.00 | 79 | 1015.7 |
| 20260903040004 | 80 | 210 | 1.7 | 2.6 | 0.00 | 0.00 | 0.00 | 79 | 1015.7 |
| 20260903035505 | 80 | 208 | 0.9 | 3.5 | 0.00 | 0.00 | 0.00 | 79 | 1015.8 |
| 20260903035004 | 80 | 210 | 0.9 | 3.5 | 0.00 | 0.00 | 0.00 | 78 | 1015.8 |
| 20260903034511 | 80 | 213 | 1.7 | 3.5 | 0.00 | 0.00 | 0.00 | 78 | 1015.8 |
| 20260903034007 | 80 | 213 | 1.7 | 3.5 | 0.00 | 0.00 | 0.00 | 78 | 1015.9 |
| 20260903033507 | 80 | 217 | 0.9 | 2.6 | 0.00 | 0.00 | 0.00 | 78 | 1015.9 |
| 20260903033017 | 80 | 202 | 1.7 | 2.6 | 0.00 | 0.00 | 0.00 | 78 | 1015.9 |
| 20260903032510 | 80 | 217 | 1.7 | 3.5 | 0.00 | 0.00 | 0.00 | 78 | 1015.9 |
| 20260903032009 | 81 | 223 | 1.7 | 3.5 | 0.00 | 0.00 | 0.00 | 78 | 1016.0 |
| 20260903031523 | 81 | 215 | 1.7 | 4.3 | 0.00 | 0.00 | 0.00 | 78 | 1016.1 |
| 20260903031014 | 81 | 198 | 1.7 | 4.3 | 0.00 | 0.00 | 0.00 | 78 | 1016.1 |
| 20260903030516 | 81 | 155 | 1.7 | 3.5 | 0.00 | 0.00 | 0.00 | 78 | 1016.1 |
| 20260903030039 | 81 | 200 | 1.7 | 2.6 | 0.00 | 0.00 | 0.00 | 78 | 1016.1 |
| 20260903025515 | 81 | 202 | 1.7 | 4.3 | 0.00 | 0.00 | 0.00 | 78 | 1016.1 |
| 20260903025006 | 81 | 216 | 1.7 | 4.3 | 0.00 | 0.00 | 0.00 | 78 | 1016.1 |
| 20260903024510 | 81 | 210 | 0.9 | 3.5 | 0.00 | 0.00 | 0.00 | 78 | 1016.2 |
| 20260903024003 | 81 | 213 | 0.9 | 3.5 | 0.00 | 0.00 | 0.00 | 77 | 1016.2 |
| 20260903023510 | 81 | 212 | 1.7 | 2.6 | 0.00 | 0.00 | 0.00 | 77 | 1016.2 |
| 20260903023015 | 81 | 207 | 1.7 | 2.6 | 0.00 | 0.00 | 0.00 | 77 | 1016.2 |
| 20260903022507 | 82 | 202 | 1.7 | 3.5 | 0.00 | 0.00 | 0.00 | 77 | 1016.2 |
| 20260903022010 | 82 | 211 | 1.7 | 4.3 | 0.00 | 0.00 | 0.00 | 77 | 1016.2 |
| 20260903021525 | 82 | 217 | 1.7 | 4.3 | 0.00 | 0.00 | 0.00 | 77 | 1016.3 |
| 20260903021013 | 81 | 213 | 1.7 | 4.3 | 0.00 | 0.00 | 0.00 | 77 | 1016.3 |
| 20260903020511 | 81 | 199 | 1.7 | 3.5 | 0.00 | 0.00 | 0.00 | 77 | 1016.2 |
| 20260903020031 | 81 | 223 | 1.7 | 3.5 | 0.00 | 0.00 | 0.00 | 77 | 1016.2 |
| 20260903015514 | 81 | 209 | 0.9 | 2.6 | 0.00 | 0.00 | 0.00 | 77 | 1016.2 |
| 20260903015016 | 82 | 202 | 0.9 | 2.6 | 0.00 | 0.00 | 0.00 | 78 | 1016.2 |
| 20260903014533 | 82 | 208 | 0.9 | 2.6 | 0.00 | 0.00 | 0.00 | 77 | 1016.1 |
| 20260903014004 | 82 | 207 | 0.9 | 3.5 | 0.00 | 0.00 | 0.00 | 77 | 1016.1 |
| 20260903013504 | 82 | 199 | 0.9 | 3.5 | 0.00 | 0.00 | 0.00 | 77 | 1016.0 |
| 20260903013011 | 82 | 203 | 0.9 | 2.6 | 0.00 | 0.00 | 0.00 | 77 | 1015.9 |
| 20260903012503 | 82 | 211 | 0.9 | 2.6 | 0.00 | 0.00 | 0.00 | 77 | 1016.0 |
| 20260903012009 | 82 | 213 | 0.9 | 2.6 | 0.00 | 0.00 | 0.00 | 77 | 1015.9 |
| 20260903011532 | 82 | 202 | 0.9 | 1.7 | 0.00 | 0.00 | 0.00 | 78 | 1015.9 |
| 20260903011011 | 82 | 209 | 0.0 | 1.7 | 0.00 | 0.00 | 0.00 | 78 | 1015.9 |
| 20260903010511 | 82 | 209 | 0.0 | 1.7 | 0.00 | 0.00 | 0.00 | 78 | 1015.8 |
| 20260903010024 | 82 | 209 | 0.9 | 1.7 | 0.00 | 0.00 | 0.00 | 77 | 1015.8 |
| 20260903005511 | 82 | 209 | 0.0 | 1.7 | 0.00 | 0.00 | 0.00 | 77 | 1015.8 |
| 20260903005016 | 82 | 209 | 0.0 | 1.7 | 0.00 | 0.00 | 0.00 | 77 | 1015.8 |
| 20260903004533 | 83 | 209 | 0.0 | 1.7 | 0.00 | 0.00 | 0.00 | 77 | 1015.7 |
| 20260903004016 | 83 | 209 | 0.0 | 1.7 | 0.00 | 0.00 | 0.00 | 76 | 1015.6 |
| 20260903003516 | 83 | 209 | 0.0 | 1.7 | 0.00 | 0.00 | 0.00 | 76 | 1015.6 |
| 20260903003008 | 84 | 209 | 0.0 | 1.7 | 0.00 | 0.00 | 0.00 | 75 | 1015.6 |
| 20260903002508 | 84 | 209 | 0.0 | 1.7 | 0.00 | 0.00 | 0.00 | 75 | 1015.5 |
| 20260903002007 | 84 | 209 | 0.0 | 1.7 | 0.00 | 0.00 | 0.00 | 73 | 1015.6 |
| 20260903001515 | 85 | 209 | 0.0 | 1.7 | 0.00 | 0.00 | 0.00 | 73 | 1015.6 |
| 20260903001009 | 85 | 209 | 0.0 | 1.7 | 0.00 | 0.00 | 0.00 | 72 | 1015.6 |
| 20260903000507 | 86 | 209 | 0.0 | 1.7 | 0.00 | 0.00 | 0.00 | 72 | 1015.5 |
| 20260903000020 | 86 | 209 | 0.0 | 1.7 | 0.00 | 0.00 | 0.00 | 71 | 1015.5 |